This demonstration page uses our WeatherBlox Daily Observations layout. Learn more.

Left ArrowRight Arrow

33.98154, -81.23621

Hourly Observations for August 14, 2022

Temp ( °F °C ) Dew Point ( °F °C ) Humidity (%) Winds ( mph kmh ) Pressure ( in mb ) Visibility ( mi km ) Precip ( " mm )
12:56 am 00:56 Clear 66 18.9 63 17.2 90 90 WSW 3 6 30.05 1018 10 16 0.00 0.00
1:56 am 01:56 Clear 65 18.3 63 17.2 93 93 Calm 30.05 1018 10 16 0.00 0.00
2:56 am 02:56 Clear 64 17.8 62 16.7 93 93 Calm 30.04 1017 10 16 0.00 0.00
3:56 am 03:56 Clear 64 17.8 62 16.7 93 93 Calm 30.03 1017 10 16 0.00 0.00
4:56 am 04:56 Clear 63 17.2 61 16.1 93 93 Calm 30.02 1017 10 16 0.00 0.00
5:56 am 05:56 Clear 62 16.7 60 15.6 93 93 WSW 3 6 30.02 1017 10 16 0.00 0.00
6:56 am 06:56 Partly Cloudy 62 16.7 60 15.6 93 93 Calm 30.03 1017 10 16 0.00 0.00
7:56 am 07:56 Partly Cloudy 64 17.8 62 16.7 93 93 Calm 30.05 1018 10 16 0.00 0.00
8:56 am 08:56 Mostly Sunny 70 21.1 63 17.2 78 78 Calm 30.05 1018 10 16 0.00 0.00
9:56 am 09:56 Mostly Sunny 75 23.9 61 16.1 62 62 ESE 5 7 30.05 1018 10 16 0.00 0.00
10:56 am 10:56 Mostly Sunny 80 26.7 62 16.7 54 54 Calm 30.05 1018 10 16 0.00 0.00
11:56 am 11:56 Mostly Sunny 82 27.8 60 15.6 47 47 S 3 6 30.05 1018 10 16 0.00 0.00
12:56 pm 12:56 Partly Cloudy 84 28.9 58 14.4 41 41 ESE 5 7 30.03 1017 10 16 0.00 0.00
1:56 pm 13:56 Partly Cloudy 87 30.6 61 16.1 42 42 VRB 3 6 30.01 1016 10 16 0.00 0.00
2:56 pm 14:56 Partly Cloudy 88 31.1 61 16.1 41 41 NNE 8 13 29.99 1016 10 16 0.00 0.00
3:56 pm 15:56 Partly Cloudy 89 31.7 62 16.7 41 41 NW 7 11 29.97 1015 10 16 0.00 0.00
4:56 pm 16:56 Mostly Cloudy 89 31.7 62 16.7 41 41 W 6 9 29.96 1015 10 16 0.00 0.00
5:56 pm 17:56 Mostly Cloudy 88 31.1 61 16.1 41 41 VRB 3 6 29.95 1014 10 16 0.00 0.00
6:56 pm 18:56 Partly Cloudy 87 30.6 62 16.7 43 43 NNE 6 9 29.93 1014 10 16 0.00 0.00
7:56 pm 19:56 Partly Cloudy 85 29.4 64 17.8 50 50 SSE 3 6 29.93 1014 10 16 0.00 0.00
8:56 pm 20:56 Mostly Clear 80 26.7 66 18.9 62 62 S 5 7 29.94 1014 10 16 0.00 0.00
9:56 pm 21:56 Mostly Clear 78 25.6 65 18.3 64 64 SSW 3 6 29.96 1014 10 16 0.00 0.00
10:56 pm 22:56 Mostly Cloudy 77 25 65 18.3 66 66 WSW 3 6 29.95 1014 10 16 0.00 0.00
11:56 pm 23:56 Partly Cloudy 75 23.9 66 18.9 74 74 Calm 29.95 1014 10 16 0.00 0.00

Powered by AerisWeather